{"data":{"norad_id":60749,"epoch":"2026-05-25T04:34:43.638240Z","epoch_age_seconds":54980,"freshness":"FRESH","line1":"1 60749U 24153E   26145.19078285  .00014971  00000+0  57924-3 0  9990","line2":"2 60749  97.6686 281.9114 0001977  41.0725 319.0661 15.26304016 96323","mean_motion":15.26304016,"eccentricity":0.0001977,"inclination_deg":97.6686,"raan_deg":281.9114,"arg_perigee_deg":41.0725,"mean_anomaly_deg":319.0661,"bstar":0.00057924,"rev_number":9632,"period_min":94.345555335288,"perigee_km":485.51530032055,"apogee_km":488.22972508187,"semimajor_km":6865.0095127012,"source":"CELESTRAK","updated_at":"2026-05-25T13:38:02.201105Z"}}